Starlink 30703

operational
NORAD ID: 57954 Int'l Des: 2023-148 Owner: SPXS Country: US Constellation: starlink
LEOCIRCULAR

About Starlink 30703

Description loading...

Live Position

Loading 3D Globe...

Upcoming Passes

Altitude History

Altitude vs Time

uPlot chart will show altitude changes over time

Two-Line Element Set

1 57954U 23148V 25350.35319758 -.00001871 00000-0 -51048-4 0 9995
2 57954 53.1606 41.2647 0001213 78.9012 281.2125 15.30213450125802
Epoch: Dec 16, 2025 • Age: 15 hours

Current Status

Altitude 491.1 km
Velocity 7.62 km/s
Sub-Earth Point -45.17°S, 94.36°W
Launch Date Sep 25, 2023
Age 2.2 years
Type internet

Technical Details

Classification Payload
Mass 730.00 kg
Dry Mass 700.00 kg
Total Mass 730.00 kg
Length 0.30 m
Diameter 4.10 m
Span 29.00 m
Shape Box + pan
Manufacturer SPXS
Bus Type Starlink V2M
Phase Status In Orbit
Owner/State SPXS/US

Large Constellations

Loading constellations...